Wind_Speed
2 2 2 2 2 2 3 3 3 3 4 6 7 7 6 5 6 6 7 7 7 7 7 6 7 7 8 8 8 7 7 7 7 6 6 6 7 7 7 7 7 8 8 8 8 8 8 7 7
3 3 3 3 3 3 3 3 3 4 4 5 6 6 5 5 6 7 7 8 8 7 7 7 8 8 8 8 8 7 7 7 7 7 6 7 7 7 8 8 8 8 8 9 10 9 9 8 8
5 5 5 4 4 4 4 4 4 4 5 5 5 5 5 6 6 7 8 8 8 8 8 8 8 8 7 8 8 8 7 7 7 7 7 7 7 8 8 8 8 9 9 9 10 10 10 9 9
6 6 7 6 5 5 6 6 6 5 5 5 6 6 6 6 7 7 8 8 8 8 8 9 8 8 8 8 8 8 8 7 7 8 8 8 8 8 8 8 9 9 9 9 10 10 10 10 10
7 7 8 7 7 7 6 6 6 5 6 6 7 6 6 8 8 8 8 8 8 8 8 8 8 8 8 9 9 8 8 8 8 8 8 8 8 9 9 9 9 9 9 9 10 10 10 10 11
8 8 8 8 8 8 7 7 7 7 7 7 7 8 7 8 8 8 8 8 8 8 7 8 8 8 8 8 8 8 8 8 8 8 8 8 8 8 9 9 9 10 9 9 9 10 10 10 11
9 9 9 8 9 9 8 8 7 8 8 8 8 7 7 8 8 8 8 8 8 8 7 7 7 7 7 7 8 8 8 8 8 8 9 8 8 8 9 10 10 10 10 9 10 10 10 11 11
9 9 9 9 9 9 9 9 8 8 8 8 8 7 7 8 7 7 8 8 8 7 7 7 8 7 8 7 8 8 8 8 8 8 9 9 9 9 10 10 11 11 10 10 10 10 11 11 12
9 9 9 10 9 9 9 9 9 9 8 8 8 8 7 8 7 7 7 7 7 7 7 7 8 8 8 8 8 8 8 9 9 9 9 9 9 9 10 10 11 12 12 12 12 11 11 11 11
8 9 8 9 9 8 9 10 10 9 9 9 9 8 7 7 7 7 7 6 6 6 7 7 7 8 8 8 8 8 9 9 10 10 10 10 10 10 10 10 11 11 11 12 13 13 13 12 12
7 7 8 8 8 8 9 10 10 10 10 10 9 8 7 7 8 8 7 7 7 7 7 7 7 7 8 8 8 9 9 10 10 11 11 11 11 12 12 12 12 12 12 13 13 14 13 13 13
7 7 7 8 8 8 9 9 10 10 10 10 10 9 8 9 9 9 8 8 8 8 8 8 8 8 8 9 9 9 10 11 11 11 12 12 13 13 13 13 12 12 12 12 13 13 13 14 13
7 7 7 7 7 8 8 9 9 10 10 10 10 10 10 10 10 9 9 8 8 8 8 8 9 9 9 9 10 10 10 12 12 12 12 13 13 13 13 13 12 12 12 13 13 13 13 13 12
6 6 7 7 8 8 9 9 10 10 10 11 10 11 11 10 10 10 9 9 8 8 8 8 9 9 9 10 10 11 11 12 13 13 13 13 13 13 13 12 12 13 13 14 14 13 13 13 12
7 7 7 7 8 9 10 10 10 10 11 11 11 11 11 11 11 11 10 9 9 9 9 9 9 10 10 11 11 12 12 13 13 13 13 13 13 13 13 13 13 13 13 14 14 13 13 13 13
7 7 7 7 8 9 10 10 10 10 11 11 11 11 11 11 12 11 10 10 10 10 10 10 10 11 11 12 12 13 13 14 14 13 13 13 13 13 13 13 13 13 13 14 14 14 14 13 13
8 8 9 9 9 10 11 10 10 10 10 11 11 12 12 12 12 12 12 12 11 12 11 11 11 12 12 12 13 13 14 14 14 14 13 13 13 13 13 13 14 14 14 14 14 14 13 13 13
9 9 10 10 11 11 11 11 11 11 11 11 12 12 13 12 12 12 12 12 12 12 12 12 12 12 12 13 13 14 14 14 14 14 13 13 13 13 13 13 13 15 14 14 14 13 13 13 13
10 10 11 12 11 11 11 12 12 12 12 12 13 13 13 13 13 13 13 13 13 13 13 13 13 13 13 14 14 14 14 15 14 14 13 13 13 13 13 13 13 14 14 14 14 13 13 14 14
11 11 12 12 12 12 12 12 13 13 13 13 13 14 14 14 14 14 14 14 15 15 14 14 13 14 14 14 14 15 15 15 15 14 14 13 13 13 13 14 14 14 14 14 13 13 14 15 15
12 11 12 12 12 12 13 12 13 13 14 14 14 14 14 15 14 14 14 15 15 15 15 15 14 14 14 14 14 14 15 15 15 15 15 15 15 14 15 15 14 14 15 15 14 14 14 15 15
13 13 13 13 12 12 13 13 12 14 14 14 14 14 15 16 15 15 15 15 16 16 16 16 15 15 15 15 14 15 15 16 15 16 16 16 16 16 16 16 16 16 16 16 16 16 15 16 16
13 13 13 12 12 12 11 13 12 13 14 14 14 14 15 16 16 16 16 16 16 16 17 17 16 16 16 15 16 16 16 16 16 17 17 18 18 18 18 17 17 17 18 18 18 18 17 17 17
13 13 12 11 12 12 11 12 12 14 15 15 15 15 15 15 15 16 16 16 16 16 16 17 16 17 16 16 17 17 17 17 17 17 17 17 18 18 19 19 18 19 19 19 19 19 19 19 19
13 12 11 11 12 12 12 14 14 15 15 15 16 16 16 16 16 17 17 17 17 17 17 17 17 17 17 17 18 18 18 18 18 18 18 18 18 19 19 20 21 21 20 20 20 20 20 20 20
12 12 12 12 13 13 14 16 16 16 16 16 16 16 17 17 17 17 17 18 18 18 18 18 18 18 18 18 18 18 19 19 19 19 19 19 20 20 21 22 22 22 22 22 22 22 22 21 21
13 13 13 14 14 14 15 16 17 18 17 17 17 17 17 17 17 18 18 18 18 18 18 18 18 18 18 18 19 20 20 20 20 20 20 20 21 22 23 23 23 23 23 23 23 22 22 22 22
14 14 15 15 15 15 15 16 18 19 18 18 19 19 18 18 18 18 19 19 19 18 18 19 19 19 20 20 20 20 20 21 21 21 21 22 23 23 24 24 23 23 23 23 23 23 23 23 23
16 16 17 18 18 17 16 17 19 20 20 20 20 20 20 20 19 19 19 19 19 19 19 19 20 20 21 21 21 21 22 22 22 22 23 23 24 24 24 23 23 23 24 24 24 24 24 24 24
18 18 18 19 19 19 19 19 21 22 22 22 21 21 20 20 20 19 19 19 19 19 20 20 20 21 21 22 22 23 23 23 24 24 24 24 24 24 23 24 24 24 24 25 26 26 25 25 26
Wind_Direction
233 231 221 224 227 235 233 228 221 223 240 239 240 244 246 246 247 250 248 247 251 253 253 260 267 266 264 262 261 262 265 265 268 270 271 267 263 262 263 264 261 259 258 259 256 250 248 238 241
233 233 227 229 237 243 253 252 235 233 242 237 243 251 252 253 253 254 254 254 256 254 255 261 264 266 266 263 261 263 267 269 268 268 270 268 265 264 268 270 268 262 259 260 255 253 249 242 241
235 235 235 236 241 253 254 262 256 247 243 243 248 257 257 257 256 258 260 260 261 260 262 263 264 263 266 264 262 262 266 271 275 275 275 271 270 271 271 274 271 267 265 265 258 258 249 244 241
235 236 239 239 247 254 262 264 261 256 248 252 255 258 258 259 259 261 262 263 263 265 268 265 263 264 267 266 265 269 274 278 278 276 276 273 271 272 272 272 275 275 273 267 261 260 252 247 247
239 242 244 244 246 250 257 259 260 258 253 255 259 263 263 266 266 266 266 265 267 267 267 265 262 266 267 265 264 266 271 278 281 281 278 276 269 270 269 271 273 274 273 267 263 261 257 257 256
243 246 242 244 246 249 255 258 259 260 260 261 265 270 269 269 270 269 268 269 269 269 265 265 264 264 263 263 263 265 269 274 278 281 283 282 276 275 271 270 272 274 271 271 270 267 261 260 260
243 244 243 244 247 248 253 258 260 260 264 265 269 275 271 269 271 271 270 271 271 268 263 263 264 262 264 265 264 267 270 271 274 278 281 280 276 276 278 274 273 273 272 273 273 270 267 268 268
243 242 243 243 247 248 249 254 256 260 265 268 270 275 272 270 271 271 272 274 273 269 263 261 264 262 263 265 266 269 271 271 273 274 279 281 279 275 275 277 276 273 272 273 274 271 271 270 267
238 241 243 241 244 245 246 253 256 259 264 267 272 274 274 268 267 268 271 274 274 271 267 265 263 262 264 264 267 271 274 274 276 278 279 280 278 277 272 275 276 277 278 275 276 273 271 268 270
231 237 240 242 243 243 247 252 256 258 264 271 274 276 274 270 267 267 267 269 272 273 272 272 269 269 270 271 273 275 277 278 281 282 283 281 279 277 277 278 275 273 272 272 274 275 276 277 277
227 237 241 240 247 247 251 254 256 257 261 265 269 272 271 272 271 270 268 271 275 274 273 273 275 279 280 280 280 280 280 280 283 284 284 284 283 281 282 279 277 273 271 270 271 273 275 277 276
226 237 244 248 250 254 258 258 259 258 262 261 262 265 267 271 273 274 271 272 273 275 277 274 276 280 281 282 282 282 282 281 282 284 287 287 286 285 284 281 278 275 275 274 275 274 277 278 278
235 239 244 252 259 262 262 261 260 261 259 260 261 263 264 267 271 272 272 272 274 273 277 281 279 278 280 282 284 282 281 282 286 288 289 288 286 286 284 279 274 272 274 277 279 281 281 280 277
241 245 249 255 261 264 267 266 263 263 261 260 262 265 264 264 269 272 272 270 273 274 277 281 280 279 282 285 287 283 283 287 289 288 286 286 285 285 284 283 273 272 275 280 283 284 282 279 277
243 246 254 260 266 269 270 266 263 260 261 262 263 265 266 266 268 270 270 271 271 273 277 279 281 284 286 286 287 285 286 288 290 288 287 287 286 285 283 280 281 280 280 283 284 285 285 282 279
252 252 259 265 268 271 270 267 264 262 262 262 263 264 266 269 268 267 267 269 273 274 276 278 280 283 285 284 287 289 289 290 291 289 289 288 287 286 284 281 282 283 282 283 283 282 282 280 277
255 265 271 272 273 275 272 269 267 265 264 264 265 265 264 266 268 269 269 268 273 275 274 278 281 281 282 283 283 287 289 290 291 289 288 286 287 287 286 285 283 283 285 283 282 281 280 279 277
261 267 273 275 276 278 276 275 274 269 265 265 266 266 265 265 267 269 269 269 271 274 274 276 279 281 283 286 286 287 289 291 291 289 286 284 284 286 286 287 287 285 285 286 283 281 281 281 278
260 266 272 277 276 276 279 278 276 272 270 268 267 266 266 265 264 267 267 268 269 272 275 277 279 281 281 283 286 288 289 290 289 287 284 284 285 286 287 287 286 286 286 286 284 282 282 280 281
262 265 269 272 270 272 274 274 274 275 272 270 270 271 269 268 266 267 267 269 270 272 275 277 277 279 281 283 285 288 289 290 287 283 282 283 283 285 286 288 286 286 284 284 285 284 283 283 282
265 266 265 270 270 272 273 270 270 273 274 273 272 271 269 265 265 265 266 268 270 271 273 276 278 279 282 285 285 288 291 291 286 282 281 282 283 285 286 287 286 284 283 281 283 284 284 284 284
267 266 266 268 269 270 274 275 272 275 276 276 275 274 271 267 266 266 268 270 270 270 270 274 276 279 282 285 285 287 292 292 288 284 284 283 282 283 283 284 284 284 284 282 281 280 280 281 282
268 266 267 268 272 274 278 280 279 277 277 276 276 276 276 273 270 269 268 270 271 271 273 275 275 277 280 283 285 289 293 292 289 285 285 284 283 283 283 284 283 282 283 282 281 279 278 278 278
268 267 266 268 271 277 280 278 277 275 278 280 279 277 277 275 272 270 269 270 272 272 273 275 276 277 280 284 285 289 292 293 291 288 287 286 286 284 283 283 284 283 282 280 280 279 279 278 277
265 265 266 270 276 285 281 276 273 276 279 283 285 283 281 278 275 272 271 271 271 271 272 273 275 278 280 283 286 289 291 292 292 289 288 288 287 285 284 284 284 283 282 280 279 279 279 277 277
262 261 261 264 270 275 274 277 278 279 278 282 284 284 282 281 276 274 272 271 271 271 273 274 275 277 279 282 284 287 289 291 291 290 289 290 289 287 285 285 285 283 281 279 277 277 278 277 277
264 260 259 261 263 268 274 277 278 276 278 281 283 283 282 281 279 275 272 273 272 273 275 276 277 277 278 280 283 286 287 289 290 290 289 290 291 290 287 286 285 283 281 279 277 277 277 276 275
261 262 259 260 264 267 271 274 277 279 281 281 282 283 283 282 281 279 275 274 274 274 274 274 275 277 279 281 284 285 287 288 290 291 291 291 291 290 288 287 284 282 282 281 279 278 277 277 276
262 263 263 264 264 265 267 271 274 279 284 284 283 282 283 284 283 281 279 277 275 274 274 275 275 277 279 281 283 284 286 287 290 292 292 293 292 289 287 285 284 283 282 281 279 278 277 276 277
265 266 266 264 263 263 266 269 273 278 281 282 282 282 283 284 285 283 283 281 279 277 276 277 278 279 280 281 283 285 286 287 289 292 294 294 292 289 286 285 283 282 282 281 280 279 278 277 277
Height
5851 5852 5852 5853 5855 5854 5854 5854 5854 5855 5855 5856 5856 5857 5858 5859 5860 5863 5861 5860 5861 5862 5862 5863 5863 5863 5863 5864 5864 5864 5865 5865 5865 5865 5865 5865 5865 5865 5865 5866 5866 5866 5866 5866 5867 5867 5867 5868 5868
5851 5851 5853 5853 5853 5853 5854 5854 5854 5855 5855 5855 5856 5857 5858 5858 5859 5859 5859 5860 5860 5861 5861 5861 5862 5862 5862 5863 5863 5863 5863 5864 5863 5864 5864 5864 5864 5864 5864 5864 5864 5864 5865 5865 5865 5865 5866 5866 5867
5850 5850 5852 5853 5852 5853 5853 5853 5854 5854 5855 5855 5856 5857 5857 5858 5858 5858 5858 5859 5859 5860 5860 5860 5860 5861 5861 5861 5862 5862 5862 5862 5862 5863 5863 5863 5863 5863 5863 5863 5863 5863 5863 5863 5863 5864 5864 5865 5865
5849 5850 5851 5852 5852 5852 5852 5853 5853 5854 5854 5855 5855 5856 5856 5857 5857 5857 5857 5857 5858 5858 5859 5859 5859 5860 5860 5860 5860 5860 5861 5861 5861 5861 5861 5861 5862 5862 5862 5862 5862 5862 5862 5862 5862 5862 5863 5863 5863
5847 5849 5850 5850 5850 5851 5851 5851 5852 5853 5853 5854 5854 5855 5855 5856 5856 5856 5856 5856 5857 5857 5857 5857 5858 5858 5858 5859 5859 5859 5859 5860 5860 5860 5860 5860 5860 5860 5860 5860 5860 5860 5860 5860 5860 5861 5861 5861 5862
5847 5847 5848 5849 5849 5850 5850 5850 5851 5852 5852 5852 5853 5854 5854 5854 5854 5855 5855 5855 5855 5856 5856 5856 5856 5857 5857 5857 5858 5858 5858 5858 5858 5858 5858 5858 5858 5859 5859 5858 5859 5859 5859 5859 5859 5859 5859 5859 5860
5845 5846 5846 5847 5847 5848 5849 5849 5850 5850 5851 5852 5852 5853 5853 5853 5853 5853 5853 5854 5854 5854 5855 5855 5855 5855 5856 5856 5856 5856 5856 5857 5857 5857 5857 5857 5857 5857 5857 5857 5857 5857 5857 5857 5857 5857 5857 5857 5858
5843 5845 5845 5845 5846 5847 5848 5848 5849 5849 5850 5850 5851 5851 5852 5852 5852 5852 5852 5852 5853 5853 5853 5853 5854 5854 5854 5855 5855 5855 5855 5855 5855 5855 5855 5855 5855 5855 5855 5855 5855 5855 5855 5855 5855 5855 5855 5855 5855
5841 5844 5843 5844 5845 5846 5847 5847 5848 5848 5849 5849 5849 5850 5851 5851 5851 5851 5851 5851 5851 5852 5852 5852 5852 5853 5853 5853 5853 5853 5854 5854 5854 5854 5854 5854 5853 5853 5853 5853 5853 5853 5852 5853 5853 5853 5853 5853 5853
5840 5842 5842 5843 5844 5844 5845 5846 5846 5847 5848 5848 5848 5849 5849 5849 5849 5849 5850 5850 5850 5850 5851 5851 5851 5851 5852 5852 5852 5852 5852 5852 5852 5852 5852 5852 5851 5851 5851 5851 5850 5850 5850 5850 5850 5850 5850 5850 5851
5838 5840 5841 5841 5842 5843 5844 5844 5845 5846 5846 5847 5847 5848 5848 5848 5848 5848 5848 5849 5849 5849 5849 5849 5850 5850 5850 5850 5850 5850 5850 5850 5850 5850 5850 5849 5849 5849 5849 5848 5848 5848 5848 5847 5847 5847 5847 5848 5848
5838 5839 5840 5840 5841 5842 5842 5843 5844 5844 5845 5846 5846 5846 5846 5846 5847 5847 5847 5847 5848 5848 5848 5848 5848 5848 5848 5849 5849 5848 5848 5848 5848 5848 5847 5847 5847 5847 5846 5846 5846 5846 5845 5845 5845 5845 5845 5845 5846
5837 5838 5839 5839 5840 5841 5841 5841 5842 5842 5843 5843 5844 5844 5845 5845 5845 5846 5846 5846 5846 5846 5846 5847 5847 5847 5847 5847 5847 5846 5846 5846 5846 5845 5845 5844 5844 5844 5843 5843 5843 5843 5842 5842 5842 5842 5842 5842 5843
5836 5837 5838 5838 5839 5839 5839 5840 5840 5841 5841 5842 5842 5842 5843 5843 5843 5844 5844 5845 5845 5845 5845 5845 5845 5845 5845 5845 5845 5845 5844 5843 5843 5842 5842 5841 5841 5841 5840 5840 5839 5839 5839 5839 5839 5839 5839 5840 5840
5835 5836 5837 5837 5837 5837 5838 5838 5838 5839 5839 5839 5840 5840 5841 5841 5842 5842 5843 5843 5843 5843 5843 5843 5843 5843 5843 5843 5843 5842 5842 5841 5840 5840 5839 5838 5838 5838 5837 5837 5837 5836 5836 5836 5836 5837 5837 5837 5837
5833 5834 5835 5835 5835 5835 5837 5837 5836 5836 5837 5837 5838 5838 5839 5839 5840 5840 5841 5841 5841 5842 5841 5841 5841 5841 5841 5841 5841 5840 5839 5839 5838 5837 5836 5836 5835 5835 5834 5834 5834 5834 5834 5834 5834 5834 5834 5834 5834
5832 5832 5833 5833 5833 5833 5834 5834 5834 5834 5835 5835 5836 5836 5837 5837 5838 5838 5839 5839 5839 5839 5839 5839 5839 5839 5839 5839 5838 5838 5837 5836 5835 5834 5833 5833 5832 5832 5832 5832 5831 5831 5831 5831 5831 5831 5831 5831 5831
5830 5831 5831 5831 5831 5831 5831 5831 5832 5832 5833 5833 5834 5834 5834 5835 5835 5836 5836 5837 5837 5837 5837 5837 5837 5837 5836 5836 5835 5835 5834 5833 5832 5831 5831 5830 5830 5829 5829 5829 5828 5828 5828 5828 5828 5828 5828 5828 5828
5828 5828 5828 5829 5828 5829 5829 5829 5829 5829 5830 5831 5831 5831 5832 5832 5833 5833 5834 5834 5834 5834 5834 5834 5834 5834 5834 5833 5833 5832 5831 5830 5829 5828 5828 5828 5827 5827 5826 5826 5826 5825 5825 5825 5824 5824 5824 5825 5825
5825 5826 5826 5826 5826 5826 5826 5826 5826 5827 5827 5828 5828 5828 5829 5829 5830 5831 5831 5831 5831 5831 5831 5831 5832 5831 5831 5830 5830 5829 5828 5827 5826 5826 5825 5825 5824 5824 5823 5823 5823 5822 5822 5822 5821 5821 5821 5821 5821
5823 5823 5823 5823 5823 5823 5824 5824 5824 5824 5824 5825 5825 5825 5825 5826 5827 5827 5828 5828 5828 5828 5828 5829 5829 5828 5828 5827 5827 5826 5825 5824 5823 5822 5822 5822 5821 5821 5820 5820 5819 5819 5819 5818 5818 5818 5818 5817 5817
5820 5820 5820 5820 5820 5820 5821 5820 5821 5821 5821 5822 5822 5822 5822 5823 5823 5824 5824 5825 5825 5825 5825 5825 5825 5825 5825 5824 5824 5823 5822 5821 5820 5819 5819 5818 5818 5817 5817 5816 5816 5816 5815 5815 5815 5814 5814 5814 5813
5817 5817 5817 5817 5817 5817 5818 5817 5819 5818 5818 5819 5819 5819 5819 5819 5820 5820 5821 5821 5821 5821 5822 5822 5822 5822 5821 5821 5820 5820 5819 5818 5817 5816 5816 5815 5814 5814 5813 5813 5812 5811 5811 5811 5810 5810 5810 5809 5809
5813 5814 5814 5814 5814 5815 5815 5815 5816 5815 5815 5815 5816 5816 5816 5816 5816 5817 5817 5818 5818 5818 5818 5818 5818 5818 5818 5818 5817 5816 5815 5814 5813 5812 5812 5811 5810 5810 5809 5808 5808 5807 5807 5806 5806 5805 5805 5804 5804
5810 5811 5811 5811 5811 5812 5813 5812 5814 5812 5812 5812 5812 5812 5812 5812 5813 5813 5814 5814 5814 5815 5815 5815 5815 5815 5814 5814 5813 5813 5812 5810 5809 5808 5808 5807 5806 5805 5804 5804 5803 5802 5801 5801 5800 5800 5799 5799 5799
5807 5808 5809 5810 5810 5810 5810 5809 5810 5810 5809 5809 5809 5809 5809 5809 5809 5809 5810 5810 5810 5810 5810 5810 5810 5810 5810 5810 5809 5809 5808 5806 5805 5804 5803 5802 5801 5800 5799 5798 5797 5796 5796 5795 5795 5794 5794 5793 5793
5804 5804 5806 5806 5806 5806 5807 5807 5806 5805 5805 5806 5805 5805 5805 5805 5805 5805 5805 5805 5806 5806 5806 5806 5806 5806 5806 5805 5805 5804 5803 5802 5801 5800 5799 5797 5796 5795 5794 5792 5791 5790 5789 5789 5788 5788 5788 5788 5787
5801 5801 5802 5802 5802 5802 5803 5803 5802 5801 5801 5801 5801 5801 5801 5801 5801 5801 5801 5801 5801 5801 5801 5801 5801 5801 5801 5800 5800 5799 5798 5797 5796 5795 5793 5792 5790 5789 5787 5786 5785 5784 5783 5783 5782 5782 5781 5781 5781
5797 5798 5797 5798 5798 5799 5799 5801 5798 5797 5797 5797 5797 5796 5796 5796 5796 5796 5796 5796 5796 5797 5797 5797 5796 5796 5796 5796 5795 5794 5793 5792 5791 5789 5787 5786 5784 5783 5781 5780 5779 5778 5777 5776 5776 5775 5775 5775 5774
5792 5793 5793 5794 5794 5794 5794 5798 5794 5793 5793 5792 5792 5791 5791 5791 5791 5791 5791 5791 5791 5791 5792 5792 5791 5791 5791 5790 5790 5789 5787 5786 5785 5783 5781 5780 5778 5776 5775 5774 5773 5772 5771 5770 5769 5769 5768 5768 5768